FW2172 Weather Reports


time (UTC)temp
C
wind
direction
speed
KPH
gust
KPH
rain 1hr
cm
rain 24hr
cm
rain mn
cm
humidity
%
barometer
mb
20260505122705 16 202 0.0 9.7 0.00 0.00 0.00 24 1023.0
20260505122204 17 238 0.0 4.8 0.00 0.00 0.00 23 1023.0
20260505120704 17 270 1.6 3.2 0.00 0.00 0.00 23 1023.0
20260505120204 17 266 4.8 9.7 0.00 0.00 0.00 23 1023.0
20260505115704 17 248 3.2 8.0 0.00 0.00 0.00 23 1023.0
20260505115205 17 246 1.6 3.2 0.00 0.00 0.00 23 1023.0
20260505114704 17 244 3.2 9.7 0.00 0.00 0.00 23 1023.0
20260505114204 17 255 4.8 8.0 0.00 0.00 0.00 23 1023.0
20260505113704 17 248 0.0 3.2 0.00 0.00 0.00 23 1023.0
20260505113204 17 292 1.6 4.8 0.00 0.00 0.00 23 1023.0
20260505112704 17 270 8.0 12.9 0.00 0.00 0.00 21 1023.0
20260505112204 17 270 3.2 12.9 0.00 0.00 0.00 23 1023.0
20260505111705 17 275 6.4 9.7 0.00 0.00 0.00 23 1023.0
20260505111204 17 291 6.4 9.7 0.00 0.00 0.00 21 1022.3
20260505110704 17 285 4.8 9.7 0.00 0.00 0.00 21 1022.0
20260505110203 17 90 4.8 8.0 0.00 0.00 0.00 21 1022.0
20260505101704 18 265 6.4 12.9 0.00 0.00 0.00 18 1022.0
20260505101204 18 257 6.4 12.9 0.00 0.00 0.00 18 1021.3
20260505100705 18 303 4.8 9.7 0.00 0.00 0.00 19 1021.0
20260505095204 18 259 4.8 9.7 0.00 0.00 0.00 23 1021.0
20260505094704 18 272 4.8 11.3 0.00 0.00 0.00 23 1021.0
20260505094204 18 275 3.2 9.7 0.00 0.00 0.00 23 1021.0
20260505093704 18 251 8.0 12.9 0.00 0.00 0.00 23 1021.0
20260505092704 18 254 4.8 11.3 0.00 0.00 0.00 23 1021.0
20260505091704 19 263 1.6 8.0 0.00 0.00 0.00 20 1021.0
20260505090704 20 258 8.0 11.3 0.00 0.00 0.00 17 1020.0
20260505090204 20 293 6.4 14.5 0.00 0.00 0.00 17 1020.0
20260505085703 20 245 6.4 12.9 0.00 0.00 0.00 17 1020.0
20260505084704 20 257 8.0 11.3 0.00 0.00 0.00 17 1020.0
20260505084204 21 253 8.0 12.9 0.00 0.00 0.00 17 1019.3
20260505083704 21 214 8.0 12.9 0.00 0.00 0.00 17 1019.0
20260505083204 21 261 8.0 14.5 0.00 0.00 0.00 17 1019.0
20260505082705 21 238 4.8 11.3 0.00 0.00 0.00 17 1019.0
20260505082204 21 268 8.0 11.3 0.00 0.00 0.00 17 1019.0
20260505081704 21 267 8.0 12.9 0.00 0.00 0.00 17 1019.0
20260505081204 21 279 11.3 12.9 0.00 0.00 0.00 17 1019.0
20260505080704 21 255 9.7 16.1 0.00 0.00 0.00 17 1019.0
20260505080204 21 265 6.4 14.5 0.00 0.00 0.00 17 1019.0
20260505075703 21 274 6.4 11.3 0.00 0.00 0.00 17 1018.3
20260505075205 21 273 11.3 16.1 0.00 0.00 0.00 17 1018.0
20260505074704 21 267 8.0 14.5 0.00 0.00 0.00 17 1018.0
20260505074204 21 273 9.7 16.1 0.00 0.00 0.00 17 1018.8
20260505073704 21 266 8.0 14.5 0.00 0.00 0.00 17 1019.0
20260505073204 21 254 9.7 16.1 0.00 0.00 0.00 17 1019.0
20260505072705 21 255 9.7 20.9 0.00 0.00 0.00 17 1018.3
20260505072204 21 240 11.3 19.3 0.00 0.00 0.00 17 1018.0
20260505071705 21 247 11.3 24.1 0.00 0.00 0.00 17 1018.0
20260505071204 22 263 9.7 20.9 0.00 0.00 0.00 16 1018.0
20260505070704 22 220 8.0 12.9 0.00 0.00 0.00 16 1018.0
20260505070204 22 276 3.2 14.5 0.00 0.00 0.00 16 1018.0
20260505065704 22 235 4.8 19.3 0.00 0.00 0.00 19 1018.0
20260505065204 22 265 6.4 16.1 0.00 0.00 0.00 19 1018.0
20260505064204 22 270 4.8 9.7 0.00 0.00 0.00 18 1017.3
20260505063704 22 278 4.8 19.3 0.00 0.00 0.00 19 1017.0
20260505063203 22 268 6.4 19.3 0.00 0.00 0.00 19 1017.0
20260505062704 22 264 9.7 16.1 0.00 0.00 0.00 19 1017.0
20260505061704 21 273 6.4 12.9 0.00 0.00 0.00 19 1017.0
20260505061204 21 262 12.9 20.9 0.00 0.00 0.00 17 1016.3
20260505060705 21 270 12.9 19.3 0.00 0.00 0.00 14 1016.0
20260505060204 22 260 8.0 20.9 0.00 0.00 0.00 14 1016.0
20260505055703 22 286 12.9 16.1 0.00 0.00 0.00 14 1016.8
20260505055204 22 237 9.7 16.1 0.00 0.00 0.00 14 1017.0
20260505054204 22 283 9.7 14.5 0.00 0.00 0.00 14 1017.0
20260505053704 21 226 11.3 19.3 0.00 0.00 0.00 14 1017.0
20260505053205 22 257 4.8 19.3 0.00 0.00 0.00 14 1017.0
20260505052204 22 229 11.3 20.9 0.00 0.00 0.00 14 1016.0
20260505051704 22 264 9.7 22.5 0.00 0.00 0.00 14 1016.0
20260505051204 22 185 12.9 24.1 0.00 0.00 0.00 14 1016.0
20260505050705 22 253 11.3 16.1 0.00 0.00 0.00 14 1016.0
20260505050205 22 219 6.4 12.9 0.00 0.00 0.00 13 1016.0
20260505041704 22 266 8.0 14.5 0.00 0.00 0.00 13 1016.0
20260505041204 23 247 4.8 12.9 0.00 0.00 0.00 13 1016.0
20260505040703 23 252 4.8 12.9 0.00 0.00 0.00 13 1016.0
20260505040204 22 242 6.4 12.9 0.00 0.00 0.00 13 1016.0
20260505035704 22 224 4.8 20.9 0.00 0.00 0.00 13 1016.0
20260505035204 22 154 4.8 9.7 0.00 0.00 0.00 13 1016.0
20260505034704 22 234 9.7 16.1 0.00 0.00 0.00 14 1016.0
20260505034204 22 290 11.3 12.9 0.00 0.00 0.00 14 1016.8
20260505033703 22 252 8.0 12.9 0.00 0.00 0.00 14 1017.0
20260505033204 22 258 9.7 14.5 0.00 0.00 0.00 14 1017.0
20260505032704 22 270 11.3 12.9 0.00 0.00 0.00 14 1017.0
20260505032204 23 291 6.4 14.5 0.00 0.00 0.00 13 1017.0
20260505031705 22 270 9.7 12.9 0.00 0.00 0.00 14 1017.0
20260505031204 22 259 6.4 12.9 0.00 0.00 0.00 13 1017.0
20260505030203 23 231 4.8 8.0 0.00 0.00 0.00 13 1017.0
20260505025704 23 225 9.7 8.0 0.00 0.00 0.00 13 1017.0
20260505025204 22 270 8.0 11.3 0.00 0.00 0.00 13 1017.0
20260505024205 22 270 8.0 8.0 0.00 0.00 0.00 14 1017.0
20260505023704 22 248 8.0 8.0 0.00 0.00 0.00 14 1017.0
20260505023204 22 248 8.0 8.0 0.00 0.00 0.00 13 1017.0
20260505022204 23 248 8.0 8.0 0.00 0.00 0.00 13 1016.0
20260505020204 23 248 4.8 8.0 0.00 0.00 0.00 13 1017.0
20260505015704 24 206 4.8 9.7 0.00 0.00 0.00 13 1017.0
20260505015204 24 225 3.2 8.0 0.00 0.00 0.00 13 1017.0
20260505014704 23 255 3.2 9.7 0.00 0.00 0.00 13 1017.0
20260505014204 23 232 3.2 9.7 0.00 0.00 0.00 13 1017.0
20260505013704 23 259 6.4 14.5 0.00 0.00 0.00 13 1017.0
20260505012205 24 197 3.2 8.0 0.00 0.00 0.00 13 1017.0
20260505011704 24 202 1.6 3.2 0.00 0.00 0.00 13 1017.0
20260505011204 24 248 0.0 3.2 0.00 0.00 0.00 13 1017.0
20260505010704 23 225 3.2 8.0 0.00 0.00 0.00 13 1017.0
20260505010204 23 225 1.6 3.2 0.00 0.00 0.00 13 1017.0
20260505005704 23 180 1.6 4.8 0.00 0.00 0.00 13 1017.0
20260505005204 23 248 4.8 8.0 0.00 0.00 0.00 13 1017.0
20260505004704 23 145 1.6 3.2 0.00 0.00 0.00 13 1017.0
20260505004204 22 242 1.6 4.8 0.00 0.00 0.00 14 1017.0
20260505003705 22 13 3.2 8.0 0.00 0.00 0.00 14 1017.0
20260505003204 22 228 3.2 8.0 0.00 0.00 0.00 14 1017.0
20260505001204 23 230 3.2 9.7 0.00 0.00 0.00 13 1017.0
20260505000704 23 112 1.6 4.8 0.00 0.00 0.00 13 1017.0
20260505000205 22 176 3.2 4.8 0.00 0.00 0.00 13 1017.0
20260504235703 23 123 0.0 4.8 0.00 0.00 0.00 13 1017.0
20260504235204 22 101 4.8 8.0 0.00 0.00 0.00 14 1017.0
20260504234704 22 135 0.0 0.0 0.00 0.00 0.00 14 1017.0
20260504234204 22 158 0.0 3.2 0.00 0.00 0.00 14 1017.0
20260504233704 22 296 0.0 3.2 0.00 0.00 0.00 14 1017.0
20260504233204 21 178 0.0 4.8 0.00 0.00 0.00 14 1017.0
20260504232704 21 125 1.6 4.8 0.00 0.00 0.00 14 1017.8
20260504230204 19 274 3.2 8.0 0.00 0.00 0.00 17 1017.0
20260504225704 19 212 1.6 3.2 0.00 0.00 0.00 17 1017.0
20260504225205 19 173 3.2 4.8 0.00 0.00 0.00 17 1017.0
20260504224204 20 202 0.0 1.6 0.00 0.00 0.00 22 1017.0
20260504223704 20 270 0.0 1.6 0.00 0.00 0.00 23 1017.0
20260504223204 21 248 0.0 1.6 0.00 0.00 0.00 24 1017.0
20260504222704 20 95 3.2 4.8 0.00 0.00 0.00 24 1017.0
20260504222204 20 63 0.0 0.0 0.00 0.00 0.00 29 1017.0
20260504221705 20 321 0.0 0.0 0.00 0.00 0.00 34 1017.0
20260504221205 19 315 0.0 0.0 0.00 0.00 0.00 35 1016.3
20260504220704 18 293 1.6 3.2 0.00 0.00 0.00 39 1016.0
20260504220204 18 45 1.6 3.2 0.00 0.00 0.00 45 1016.0
20260504215705 17 0 1.6 3.2 0.00 0.00 0.00 49 1016.8
20260504214704 16 45 1.6 8.0 0.00 0.00 0.00 57 1017.0
20260504214204 16 22 1.6 3.2 0.00 0.00 0.00 58 1017.0
20260504213704 15 34 1.6 4.8 0.00 0.00 0.00 58 1017.0
20260504213204 15 68 3.2 4.8 0.00 0.00 0.00 58 1017.0
20260504212704 15 43 0.0 3.2 0.00 0.00 0.00 59 1017.0
20260504212205 15 45 3.2 4.8 0.00 0.00 0.00 59 1017.0
20260504211704 15 55 0.0 1.6 0.00 0.00 0.00 60 1017.0
20260504211204 14 68 0.0 1.6 0.00 0.00 0.00 60 1016.3
20260504210705 14 68 0.0 0.0 0.00 0.00 0.00 61 1016.0
20260504210204 14 66 0.0 0.0 0.00 0.00 0.00 61 1016.0
20260504205704 14 90 0.0 0.0 0.00 0.00 0.00 61 1015.3
20260504204703 14 55 0.0 1.6 0.00 0.00 0.00 61 1015.0
20260504204203 13 358 0.0 1.6 0.00 0.00 0.00 61 1014.2
20260504203703 13 41 0.0 3.2 0.00 0.00 0.00 61 1014.0
20260504203205 13 61 1.6 4.8 0.00 0.00 0.00 62 1014.0
20260504202704 13 56 3.2 4.8 0.00 0.00 0.00 60 1014.8
20260504202204 13 45 3.2 4.8 0.00 0.00 0.00 59 1015.0
20260504201704 13 68 3.2 3.2 0.00 0.00 0.00 57 1015.0
20260504201204 13 63 3.2 4.8 0.00 0.00 0.00 53 1014.3
20260504200704 13 64 1.6 3.2 0.00 0.00 0.00 50 1014.0
20260504200204 13 68 0.0 1.6 0.00 0.00 0.00 49 1014.0
20260504195705 13 47 1.6 3.2 0.00 0.00 0.00 49 1014.0
20260504195204 13 81 0.0 0.0 0.00 0.00 0.00 48 1014.0
20260504194704 13 45 0.0 1.6 0.00 0.00 0.00 47 1014.0
20260504194203 13 68 1.6 1.6 0.00 0.00 0.00 47 1013.3
20260504193703 13 68 1.6 1.6 0.00 0.00 0.00 46 1013.0
20260504192704 13 90 0.0 0.0 0.00 0.00 0.00 45 1012.3
20260504192205 14 68 1.6 4.8 0.00 0.00 0.00 46 1012.0
20260504191704 14 90 3.2 4.8 0.00 0.00 0.00 46 1012.0
20260504190704 13 68 3.2 4.8 0.00 0.00 0.00 48 1013.0
20260504185703 13 68 1.6 8.0 0.00 0.00 0.00 49 1012.3
20260504185204 13 91 3.2 8.0 0.00 0.00 0.00 50 1012.0
20260504184204 13 47 3.2 4.8 0.00 0.00 0.00 50 1011.3
20260504183704 13 45 0.0 4.8 0.00 0.00 0.00 49 1011.0
20260504183204 14 68 1.6 8.0 0.00 0.00 0.00 49 1011.0
20260504182704 14 90 4.8 9.7 0.00 0.00 0.00 50 1011.0
20260504182204 14 65 4.8 9.7 0.00 0.00 0.00 50 1011.0
20260504181704 14 68 6.4 4.8 0.00 0.00 0.00 50 1011.0
20260504181204 14 66 3.2 8.0 0.00 0.00 0.00 51 1011.0
20260504180204 14 57 3.2 4.8 0.00 0.00 0.00 51 1011.0
20260504175704 14 68 3.2 4.8 0.00 0.00 0.00 49 1011.0
20260504175204 14 61 1.6 3.2 0.00 0.00 0.00 47 1011.0
20260504174704 14 67 0.0 0.0 0.00 0.00 0.00 46 1011.0
20260504174204 14 52 0.0 0.0 0.00 0.00 0.00 46 1010.3
20260504173704 14 45 0.0 0.0 0.00 0.00 0.00 45 1010.0
20260504173204 14 45 1.6 3.2 0.00 0.00 0.00 44 1010.0
20260504172204 14 63 0.0 0.0 0.00 0.00 0.00 45 1009.0
20260504171704 14 68 0.0 0.0 0.00 0.00 0.00 43 1009.0
20260504171204 14 68 0.0 0.0 0.00 0.00 0.00 43 1008.3
20260504170704 14 68 0.0 0.0 0.00 0.00 0.00 40 1008.0
20260504170205 14 68 0.0 0.0 0.00 0.00 0.00 39 1008.0
20260504160204 15 68 0.0 4.8 0.00 0.00 0.00 31 1007.0
20260504150703 15 68 8.0 8.0 0.00 0.00 0.00 26 1006.0
20260504150204 15 68 8.0 8.0 0.00 0.00 0.00 26 1006.0
20260504141203 16 112 4.8 9.7 0.00 0.00 0.00 24 1004.8
20260504140204 16 68 8.0 11.3 0.00 0.00 0.00 24 1005.0
20260504130704 17 135 1.6 11.3 0.00 0.00 0.00 24 1003.0
20260504130204 17 135 4.8 9.7 0.00 0.00 0.00 24 1003.0